Flag for France Weather past 2 weeks in Paris, France

Now
70 °F

Partly sunny.


Feels Like: 70 °F
Forecast: 55 / 74 °F
Wind: 6 mph from South

Location: Villacoublay

Current Time: Sep 30, 2014 at 2:47:52 PM

Latest Report: Sep 30, 2014 at 2:00 PM


Visibility: N/A

Pressure: 30.30 "Hg

Humidity: 69%

Dew point: 59 °F

Location of ParisLocation

Historic Weather in Paris — Graph

°F

Paris temperature yesterday

Maximum temperature yesterday: 72 °F (at 4:00 PM)
Minimum temperature yesterday: 59 °F (at 7:30 AM)
Average temperature yesterday: 64 °F

Past Weeks' High & Low Weather Summary

 TemperatureHumidityPressure
High79 °F (Sep 17, 5:00 PM)100% (Sep 21, 8:00 AM)30.33 "Hg (Sep 21, 8:00 AM)
Low46 °F (Sep 24, 6:30 AM)42% (Sep 16, 5:00 PM)29.74 "Hg (Sep 18, 7:30 AM)
Average63 °F73%30.07 "Hg
* Reported Sep 15 1:00 PM — Sep 30 1:30 PM, Paris, Weather by CustomWeather, © 2014

Note: Actual official high and low records may vary slightly from our data, if they occured in-between our weather recording intervals... More about our weather records

Advertising

Paris weather history for previous 24 hours

 ConditionsComfort  
Time TempWeatherWind HumidityBarometerVisibility
1:30 PM
Sep 30
70 °FPartly sunny.7 mph69%30.30 "HgN/A
1:00 PM70 °FBroken clouds.5 mph69%30.30 "HgN/A
12:30 PM68 °FPassing clouds.3 mph73%30.30 "HgN/A
12:00 PM68 °FPassing clouds.2 mph78%30.30 "HgN/A
11:30 AM64 °FClear.3 mph83%30.30 "HgN/A
11:00 AM63 °FClear.No wind88%30.30 "HgN/A
10:30 AM61 °FClear.2 mph88%30.30 "Hg6 mi
10:00 AM59 °FClear.2 mph94%30.30 "Hg6 mi
9:30 AM59 °FClear.2 mph94%30.30 "Hg5 mi
9:00 AM57 °FFog.No wind94%30.27 "Hg3 mi
8:30 AM55 °FLight fog.2 mph94%30.27 "Hg1 mi
8:00 AM55 °FFog.2 mph94%30.27 "Hg0 mi
7:30 AM54 °FFog.2 mph100%30.27 "Hg0 mi
7:00 AM55 °FFog.No wind94%30.27 "Hg0 mi
6:30 AM55 °FFog.No wind100%30.27 "Hg0 mi
6:00 AM57 °FFog.1 mph94%30.27 "Hg0 mi
5:30 AM57 °FFog.3 mph100%30.24 "Hg0 mi
5:00 AM57 °FFog.3 mph100%30.24 "Hg0 mi
4:30 AM57 °FFog.2 mph100%30.24 "Hg0 mi
4:00 AM57 °FFog.No wind100%30.24 "Hg0 mi
3:30 AM57 °FFog.2 mph100%30.24 "Hg0 mi
3:00 AM59 °FFog.2 mph94%30.24 "Hg0 mi
2:30 AM59 °FFog.2 mph100%30.24 "Hg0 mi
2:00 AM59 °FFog.3 mph100%30.24 "Hg0 mi
1:30 AM61 °FFog.3 mph94%30.24 "Hg0 mi
1:00 AM61 °FFog.3 mph94%30.24 "Hg1 mi
12:30 AM59 °FFog.3 mph94%30.24 "Hg2 mi
12:00 AM61 °FFog.2 mph94%30.24 "Hg2 mi
11:30 PM
Sep 29
63 °FPartly cloudy.2 mph94%30.24 "Hg5 mi
11:00 PM63 °FOvercast.3 mph94%30.24 "Hg4 mi
10:30 PM63 °FMostly cloudy.2 mph94%30.24 "Hg4 mi
10:00 PM63 °FMostly cloudy.3 mph94%30.24 "Hg2 mi
9:30 PM63 °FMostly cloudy.No wind94%30.21 "Hg5 mi
9:00 PM63 °FPassing clouds.No wind94%30.21 "Hg5 mi
8:30 PM64 °FLight rain. Broken clouds.3 mph88%30.21 "Hg4 mi
8:00 PM66 °FBroken clouds.5 mph78%30.21 "HgN/A
7:30 PM66 °FPartly sunny.5 mph78%30.21 "HgN/A
7:00 PM68 °FBroken clouds.7 mph73%30.18 "HgN/A
6:30 PM68 °FBroken clouds.6 mph73%30.18 "HgN/A
6:00 PM68 °FPartly sunny.6 mph73%30.18 "HgN/A
5:30 PM68 °FPartly sunny.6 mph73%30.18 "HgN/A
5:00 PM68 °FBroken clouds.7 mph73%30.18 "HgN/A
4:30 PM70 °FPartly sunny.9 mph69%30.18 "HgN/A
4:00 PM72 °FBroken clouds.9 mph69%30.18 "HgN/A
3:30 PM70 °FPartly sunny.9 mph69%30.18 "HgN/A
3:00 PM68 °FOvercast.8 mph73%30.18 "HgN/A
2:30 PM68 °FBroken clouds.8 mph78%30.18 "HgN/A
2:00 PM68 °FPassing clouds.8 mph78%30.21 "HgN/A
Weather by CustomWeather, © 2014

See weather overviewHow to use our weather pages